Flag for Kazakhstan Weather past 2 weeks in Aqtobe, Kazakhstan

Now
79 °F

Sunny.


Feels Like: 78 °F
Forecast: 59 / 76 °F
Wind: 13 mph from Northwest

Location: Aktjubinsk

Current Time: Jul 25, 2014 at 12:38:26 PM

Latest Report: Jul 25, 2014 at 12:00 PM


Visibility: 10 mi

Pressure: 29.77 "Hg

Humidity: 24%

Dew point: 39 °F

Location of AqtobeLocation

Historic Weather in Aqtobe — Graph

°F

Aqtobe temperature yesterday

Maximum temperature yesterday: 77 °F (at 3:00 PM)
Minimum temperature yesterday: 59 °F (at 4:30 AM)
Average temperature yesterday: 68 °F

Past Weeks' High & Low Weather Summary

 TemperatureHumidityPressure
High90 °F (Jul 17, 1:30 PM)94% (Jul 10, 11:00 AM)30.07 "Hg (Jul 10, 11:00 AM)
Low45 °F (Jul 13, 5:00 AM)19% (Jul 13, 3:00 PM)29.59 "Hg (Jul 19, 10:30 PM)
Average66 °F52%29.80 "Hg
* Reported Jul 10 11:00 AM — Jul 25 11:30 AM, Aqtobe, Weather by CustomWeather, © 2014

Note: Actual official high and low records may vary slightly from our data, if they occured in-between our weather recording intervals... More about our weather records

Advertising

Aqtobe weather history for previous 24 hours

 ConditionsComfort  
Time TempWeatherWind HumidityBarometerVisibility
11:30 AM
Jul 25
79 °FSunny.17 mph26%29.77 "Hg10 mi
11:00 AM79 °FClear.17 mph24%29.77 "HgN/A
10:30 AM77 °FClear.8 mph28%29.77 "HgN/A
10:00 AM75 °FClear.6 mph36%29.80 "Hg6 mi
9:30 AM73 °FClear.3 mph41%29.80 "HgN/A
9:00 AM70 °FClear.3 mph46%29.80 "HgN/A
8:30 AM66 °FClear.1 mph60%29.80 "Hg4 mi
8:00 AM64 °FClear.No wind68%29.80 "Hg4 mi
7:30 AM59 °FSunny.No wind82%29.80 "Hg10 mi
7:00 AM55 °FSunny.No wind88%29.80 "Hg10 mi
6:30 AM52 °FSunny.3 mph94%29.80 "Hg10 mi
6:00 AM52 °FSunny.3 mph88%29.80 "Hg10 mi
5:30 AM52 °FSunny.3 mph88%29.80 "Hg10 mi
5:00 AM50 °FClear.1 mph94%29.80 "Hg10 mi
4:30 AM50 °FClear.1 mph94%29.80 "HgN/A
4:00 AM52 °FClear.3 mph88%29.80 "Hg4 mi
3:30 AM54 °FClear.1 mph94%29.80 "Hg4 mi
3:00 AM54 °FClear.1 mph94%29.80 "Hg4 mi
2:30 AM59 °FClear.No wind82%29.80 "Hg4 mi
2:00 AM59 °FClear.No wind82%29.80 "HgN/A
1:30 AM57 °FClear.1 mph88%29.80 "HgN/A
1:00 AM59 °FClear.No wind88%29.80 "Hg3 mi
12:30 AM57 °FClear.No wind88%29.80 "Hg4 mi
12:00 AM63 °FClear.No wind77%29.80 "Hg3 mi
11:30 PM
Jul 24
64 °FClear.No wind73%29.80 "Hg5 mi
11:00 PM66 °FClear.No wind68%29.80 "Hg3 mi
10:30 PM66 °FClear.No wind64%29.80 "Hg3 mi
10:00 PM66 °FClear.3 mph64%29.80 "Hg10 mi
9:30 PM66 °FClear.6 mph60%29.80 "Hg10 mi
9:00 PM68 °FSunny.3 mph56%29.80 "Hg10 mi
8:30 PM72 °FSunny.3 mph50%29.80 "Hg10 mi
8:00 PM75 °FSunny.3 mph41%29.80 "Hg10 mi
7:30 PM75 °FPassing clouds.3 mph39%29.77 "HgN/A
7:00 PM77 °FScattered clouds.6 mph34%29.77 "HgN/A
6:30 PM77 °FPartly sunny.6 mph34%29.77 "HgN/A
6:00 PM77 °FPartly sunny.6 mph36%29.80 "HgN/A
5:30 PM75 °FPartly sunny.3 mph41%29.80 "HgN/A
5:00 PM75 °FPartly sunny.3 mph41%29.80 "HgN/A
4:30 PM75 °FPartly sunny.6 mph47%29.80 "HgN/A
4:00 PM77 °FBroken clouds.6 mph32%29.80 "HgN/A
3:30 PM73 °FBroken clouds.8 mph44%29.80 "HgN/A
3:00 PM77 °FBroken clouds.10 mph32%29.80 "HgN/A
2:30 PM75 °FBroken clouds.8 mph36%29.80 "HgN/A
2:00 PM75 °FBroken clouds.8 mph39%29.83 "HgN/A
1:30 PM72 °FBroken clouds.6 mph53%29.83 "HgN/A
1:00 PM70 °FBroken clouds.8 mph60%29.83 "Hg5 mi
12:30 PM70 °FPartly sunny.10 mph64%29.83 "Hg5 mi
12:00 PM70 °FPartly sunny.10 mph64%29.83 "Hg4 mi
Weather by CustomWeather, © 2014

See weather overviewHow to use our weather pages